Time,TemperatureF,DewpointF,PressureIn,WindDirection,WindDirectionDegrees,WindSpeedMPH,WindSpeedGustMPH,Humidity,HourlyPrecipIn,Conditions,Clouds,dailyrainin,SoftwareType,DateUTC
2013-01-27 00:00:00,30.0,21.8,30.28,NE,45,2.3,3.1,71,0.00,,,0.00,WUHU216TE923,2013-01-27 05:00:00,
2013-01-27 00:02:00,30.0,21.8,30.28,NE,45,2.3,3.1,71,0.00,,,0.00,WUHU216TE923,2013-01-27 05:02:00,
2013-01-27 00:07:00,30.0,21.8,30.28,NE,45,2.2,2.3,71,0.00,,,0.00,WUHU216TE923,2013-01-27 05:07:00,
2013-01-27 00:12:00,30.0,21.8,30.28,NE,45,2.2,2.2,71,0.00,,,0.00,WUHU216TE923,2013-01-27 05:12:00,
2013-01-27 00:17:00,29.7,21.5,30.28,NE,45,1.8,2.2,71,0.00,,,0.00,WUHU216TE923,2013-01-27 05:17:00,
2013-01-27 00:22:00,29.7,21.8,30.28,ENE,68,1.8,2.8,72,0.00,,,0.00,WUHU216TE923,2013-01-27 05:22:00,
2013-01-27 00:27:00,29.7,21.8,30.28,ENE,68,2.1,3.5,72,0.00,,,0.00,WUHU216TE923,2013-01-27 05:27:00,
2013-01-27 00:32:00,29.3,21.4,30.28,SE,135,2.2,3.5,72,0.00,,,0.00,WUHU216TE923,2013-01-27 05:32:00,
2013-01-27 00:37:00,29.3,21.8,30.28,NNE,23,2.2,2.9,73,0.00,,,0.00,WUHU216TE923,2013-01-27 05:37:00,
2013-01-27 00:42:00,29.1,21.6,30.28,ENE,68,2.3,2.5,73,0.00,,,0.00,WUHU216TE923,2013-01-27 05:42:00,
2013-01-27 00:47:00,29.1,21.9,30.28,NNE,23,2.4,3.2,74,0.00,,,0.00,WUHU216TE923,2013-01-27 05:47:00,
2013-01-27 00:52:00,29.3,21.8,30.28,NE,45,2.8,3.7,73,0.00,,,0.00,WUHU216TE923,2013-01-27 05:52:00,
2013-01-27 00:57:00,29.7,22.2,30.27,NNE,23,3.3,3.7,73,0.00,,,0.00,WUHU216TE923,2013-01-27 05:57:00,
2013-01-27 01:02:00,29.3,21.8,30.27,NNE,23,3.2,4.0,73,0.00,,,0.00,WUHU216TE923,2013-01-27 06:02:00,
2013-01-27 01:07:00,29.3,21.8,30.27,NE,45,2.5,4.0,73,0.00,,,0.00,WUHU216TE923,2013-01-27 06:07:00,
2013-01-27 01:12:00,29.7,22.2,30.27,ENE,68,2.1,2.5,73,0.00,,,0.00,WUHU216TE923,2013-01-27 06:12:00,
2013-01-27 01:17:00,29.3,21.8,30.27,NNE,23,1.8,2.4,73,0.00,,,0.00,WUHU216TE923,2013-01-27 06:17:00,
2013-01-27 01:22:00,29.1,21.9,30.27,NNE,23,2.0,2.6,74,0.00,,,0.00,WUHU216TE923,2013-01-27 06:22:00,
2013-01-27 01:27:00,29.3,22.1,30.27,NNE,23,2.9,2.9,74,0.00,,,0.00,WUHU216TE923,2013-01-27 06:27:00,
2013-01-27 01:32:00,29.1,21.9,30.27,ENE,68,3.1,3.1,74,0.00,,,0.00,WUHU216TE923,2013-01-27 06:32:00,
2013-01-27 01:37:00,29.1,21.6,30.27,NNE,23,1.7,3.1,73,0.00,,,0.00,WUHU216TE923,2013-01-27 06:37:00,
2013-01-27 01:42:00,28.9,21.4,30.27,NNE,23,0.7,1.7,73,0.00,,,0.00,WUHU216TE923,2013-01-27 06:42:00,
2013-01-27 01:47:00,28.9,21.7,30.27,NNE,23,0.0,0.7,74,0.00,,,0.00,WUHU216TE923,2013-01-27 06:47:00,
2013-01-27 01:52:00,28.6,21.4,30.27,NNE,23,0.2,1.2,74,0.00,,,0.00,WUHU216TE923,2013-01-27 06:52:00,
2013-01-27 01:57:00,28.6,21.4,30.27,NNE,23,1.2,1.9,74,0.00,,,0.00,WUHU216TE923,2013-01-27 06:57:00,
2013-01-27 02:02:00,28.6,21.4,30.27,NNE,23,1.7,1.9,74,0.00,,,0.00,WUHU216TE923,2013-01-27 07:02:00,
2013-01-27 02:07:00,28.6,21.4,30.27,NNE,23,0.8,1.7,74,0.00,,,0.00,WUHU216TE923,2013-01-27 07:07:00,
2013-01-27 02:13:00,28.4,20.9,30.27,NNE,23,0.2,0.8,73,0.00,,,0.00,WUHU216TE923,2013-01-27 07:13:00,
2013-01-27 02:18:00,28.2,21.0,30.26,NNE,23,0.0,0.2,74,0.00,,,0.00,WUHU216TE923,2013-01-27 07:18:00,
2013-01-27 02:23:00,28.2,21.0,30.26,NE,45,0.3,2.0,74,0.00,,,0.00,WUHU216TE923,2013-01-27 07:23:00,
2013-01-27 02:28:00,28.2,21.0,30.26,NE,45,1.3,2.1,74,0.00,,,0.00,WUHU216TE923,2013-01-27 07:28:00,
2013-01-27 02:33:00,28.2,21.3,30.26,NNE,23,2.1,2.4,75,0.00,,,0.00,WUHU216TE923,2013-01-27 07:33:00,
2013-01-27 02:38:00,28.4,21.5,30.28,NNE,23,2.6,3.8,75,0.00,,,0.00,WUHU216TE923,2013-01-27 07:38:00,
2013-01-27 02:43:00,28.4,21.2,30.28,NE,45,2.5,3.8,74,0.00,,,0.00,WUHU216TE923,2013-01-27 07:43:00,
2013-01-27 02:48:00,28.4,21.2,30.28,NNE,23,1.9,2.5,74,0.00,,,0.00,WUHU216TE923,2013-01-27 07:48:00,
2013-01-27 02:53:00,28.4,21.2,30.28,NE,45,1.6,2.7,74,0.00,,,0.00,WUHU216TE923,2013-01-27 07:53:00,
2013-01-27 02:58:00,28.4,21.2,30.25,NE,45,2.2,2.8,74,0.00,,,0.00,WUHU216TE923,2013-01-27 07:58:00,
2013-01-27 03:03:00,28.6,21.4,30.25,NNE,23,2.6,3.0,74,0.00,,,0.00,WUHU216TE923,2013-01-27 08:03:00,
2013-01-27 03:08:00,28.4,21.2,30.25,NNE,23,2.7,3.0,74,0.00,,,0.00,WUHU216TE923,2013-01-27 08:08:00,
2013-01-27 03:13:00,28.4,21.2,30.25,NNE,23,2.7,2.8,74,0.00,,,0.00,WUHU216TE923,2013-01-27 08:13:00,
2013-01-27 03:18:00,28.4,21.2,30.26,NNE,23,2.8,2.8,74,0.00,,,0.00,WUHU216TE923,2013-01-27 08:18:00,
2013-01-27 03:23:00,28.4,21.2,30.26,NE,45,2.7,2.8,74,0.00,,,0.00,WUHU216TE923,2013-01-27 08:23:00,
2013-01-27 03:28:00,28.2,21.0,30.26,NE,45,2.5,3.0,74,0.00,,,0.00,WUHU216TE923,2013-01-27 08:28:00,
2013-01-27 03:33:00,28.6,21.4,30.26,NNE,23,2.5,3.0,74,0.00,,,0.00,WUHU216TE923,2013-01-27 08:33:00,
2013-01-27 03:38:00,28.2,21.0,30.25,NNE,23,2.4,2.5,74,0.00,,,0.00,WUHU216TE923,2013-01-27 08:38:00,
2013-01-27 03:43:00,28.2,21.0,30.25,NNE,23,2.0,2.4,74,0.00,,,0.00,WUHU216TE923,2013-01-27 08:43:00,
2013-01-27 03:48:00,28.2,21.0,30.25,NNE,23,0.9,2.0,74,0.00,,,0.00,WUHU216TE923,2013-01-27 08:48:00,
2013-01-27 03:53:00,28.2,21.0,30.25,ENE,68,0.5,0.9,74,0.00,,,0.00,WUHU216TE923,2013-01-27 08:53:00,
2013-01-27 03:58:00,27.9,20.7,30.25,ENE,68,0.4,0.5,74,0.00,,,0.00,WUHU216TE923,2013-01-27 08:58:00,
2013-01-27 04:03:00,28.2,21.0,30.25,NNE,23,0.6,1.6,74,0.00,,,0.00,WUHU216TE923,2013-01-27 09:03:00,
2013-01-27 04:08:00,27.9,20.7,30.25,East,90,1.3,2.6,74,0.00,,,0.00,WUHU216TE923,2013-01-27 09:08:00,
2013-01-27 04:13:00,27.7,20.8,30.25,NE,45,2.0,2.6,75,0.00,,,0.00,WUHU216TE923,2013-01-27 09:13:00,
2013-01-27 04:18:00,27.9,21.0,30.24,NNE,23,2.1,2.1,75,0.00,,,0.00,WUHU216TE923,2013-01-27 09:18:00,
2013-01-27 04:23:00,27.9,21.0,30.24,NNE,23,1.7,2.1,75,0.00,,,0.00,WUHU216TE923,2013-01-27 09:23:00,
2013-01-27 04:28:00,27.9,21.0,30.24,NNE,23,1.6,2.0,75,0.00,,,0.00,WUHU216TE923,2013-01-27 09:28:00,
2013-01-27 04:33:00,27.9,21.0,30.24,NNE,23,1.8,3.6,75,0.00,,,0.00,WUHU216TE923,2013-01-27 09:33:00,
2013-01-27 04:38:00,27.7,20.8,30.24,NNE,23,2.2,3.6,75,0.00,,,0.00,WUHU216TE923,2013-01-27 09:38:00,
2013-01-27 04:43:00,27.9,21.0,30.24,NNE,23,2.7,3.4,75,0.00,,,0.00,WUHU216TE923,2013-01-27 09:43:00,
2013-01-27 04:48:00,27.9,21.0,30.24,NE,45,2.9,3.4,75,0.00,,,0.00,WUHU216TE923,2013-01-27 09:48:00,
2013-01-27 04:53:00,27.9,21.0,30.24,NNE,23,3.1,3.3,75,0.00,,,0.00,WUHU216TE923,2013-01-27 09:53:00,
2013-01-27 04:58:00,27.9,21.0,30.24,NE,45,2.8,3.1,75,0.00,,,0.00,WUHU216TE923,2013-01-27 09:58:00,
2013-01-27 05:03:00,27.7,20.8,30.24,NE,45,2.5,2.8,75,0.00,,,0.00,WUHU216TE923,2013-01-27 10:03:00,
2013-01-27 05:08:00,27.7,20.8,30.24,NNE,23,2.3,2.9,75,0.00,,,0.00,WUHU216TE923,2013-01-27 10:08:00,
2013-01-27 05:13:00,27.7,20.8,30.24,NNE,23,2.5,3.8,75,0.00,,,0.00,WUHU216TE923,2013-01-27 10:13:00,
2013-01-27 05:18:00,27.7,20.8,30.24,NNE,23,3.1,4.5,75,0.00,,,0.00,WUHU216TE923,2013-01-27 10:18:00,
2013-01-27 05:23:00,27.7,20.8,30.24,NNE,23,3.1,4.5,75,0.00,,,0.00,WUHU216TE923,2013-01-27 10:23:00,
2013-01-27 05:28:00,27.7,20.8,30.24,NNE,23,2.4,3.1,75,0.00,,,0.00,WUHU216TE923,2013-01-27 10:28:00,
2013-01-27 05:33:00,27.9,21.0,30.24,NNE,23,2.0,3.1,75,0.00,,,0.00,WUHU216TE923,2013-01-27 10:33:00,
2013-01-27 05:38:00,27.5,20.7,30.24,NNE,23,1.9,2.8,75,0.00,,,0.00,WUHU216TE923,2013-01-27 10:38:00,
2013-01-27 05:43:00,27.5,20.7,30.24,NNE,23,2.2,3.2,75,0.00,,,0.00,WUHU216TE923,2013-01-27 10:43:00,
2013-01-27 05:48:00,27.5,20.7,30.24,NNE,23,3.0,3.6,75,0.00,,,0.00,WUHU216TE923,2013-01-27 10:48:00,
2013-01-27 05:53:00,27.5,20.7,30.24,NNE,23,3.1,3.6,75,0.00,,,0.00,WUHU216TE923,2013-01-27 10:53:00,
2013-01-27 05:58:00,27.5,20.7,30.24,NNE,23,3.2,4.4,75,0.00,,,0.00,WUHU216TE923,2013-01-27 10:58:00,
2013-01-27 06:03:00,27.5,20.7,30.24,NNE,23,3.1,4.4,75,0.00,,,0.00,WUHU216TE923,2013-01-27 11:03:00,
2013-01-27 06:08:00,27.5,20.7,30.24,NNE,23,2.9,3.1,75,0.00,,,0.00,WUHU216TE923,2013-01-27 11:08:00,
2013-01-27 06:13:00,27.5,20.7,30.24,NNE,23,2.9,2.9,75,0.00,,,0.00,WUHU216TE923,2013-01-27 11:13:00,
2013-01-27 06:18:00,27.5,20.7,30.25,NNE,23,0.6,2.9,75,0.00,,,0.00,WUHU216TE923,2013-01-27 11:18:00,
2013-01-27 06:23:00,27.5,20.7,30.25,NE,45,0.2,0.6,75,0.00,,,0.00,WUHU216TE923,2013-01-27 11:23:00,
2013-01-27 06:28:00,27.5,20.7,30.25,NNE,23,0.5,1.3,75,0.00,,,0.00,WUHU216TE923,2013-01-27 11:28:00,
2013-01-27 06:33:00,27.5,20.7,30.25,NNE,23,1.0,1.7,75,0.00,,,0.00,WUHU216TE923,2013-01-27 11:33:00,
2013-01-27 06:38:00,27.5,20.7,30.25,NNE,23,1.1,2.1,75,0.00,,,0.00,WUHU216TE923,2013-01-27 11:38:00,
2013-01-27 06:43:00,27.5,20.7,30.25,NNE,23,1.4,2.6,75,0.00,,,0.00,WUHU216TE923,2013-01-27 11:43:00,
2013-01-27 06:48:00,27.5,20.7,30.25,NNE,23,2.6,3.6,75,0.00,,,0.00,WUHU216TE923,2013-01-27 11:48:00,
2013-01-27 06:53:00,27.5,20.7,30.25,NE,45,2.8,3.6,75,0.00,,,0.00,WUHU216TE923,2013-01-27 11:53:00,
2013-01-27 06:58:00,27.5,20.7,30.25,NNE,23,3.4,4.0,75,0.00,,,0.00,WUHU216TE923,2013-01-27 11:58:00,
2013-01-27 07:03:00,27.1,20.3,30.25,NNE,23,3.5,4.9,75,0.00,,,0.00,WUHU216TE923,2013-01-27 12:03:00,
2013-01-27 07:08:00,27.1,20.6,30.25,East,90,3.4,4.9,76,0.00,,,0.00,WUHU216TE923,2013-01-27 12:08:00,
2013-01-27 07:13:00,27.1,20.6,30.25,North,0,3.5,4.4,76,0.00,,,0.00,WUHU216TE923,2013-01-27 12:13:00,
2013-01-27 07:18:00,27.1,20.6,30.23,NE,45,3.6,4.4,76,0.00,,,0.00,WUHU216TE923,2013-01-27 12:18:00,
2013-01-27 07:23:00,27.1,20.6,30.23,NE,45,3.0,4.4,76,0.00,,,0.00,WUHU216TE923,2013-01-27 12:23:00,
2013-01-27 07:28:00,27.1,20.6,30.23,ESE,113,2.0,3.0,76,0.00,,,0.00,WUHU216TE923,2013-01-27 12:28:00,
2013-01-27 07:33:00,27.1,20.6,30.23,NNE,23,1.1,2.0,76,0.00,,,0.00,WUHU216TE923,2013-01-27 12:33:00,
2013-01-27 07:38:00,27.1,20.6,30.25,ENE,68,0.7,3.5,76,0.00,,,0.00,WUHU216TE923,2013-01-27 12:38:00,
2013-01-27 07:43:00,27.1,20.9,30.25,NE,45,1.3,3.5,77,0.00,,,0.00,WUHU216TE923,2013-01-27 12:43:00,
2013-01-27 07:48:00,27.5,21.3,30.25,NNE,23,2.0,2.5,77,0.00,,,0.00,WUHU216TE923,2013-01-27 12:48:00,
2013-01-27 07:53:00,27.5,21.3,30.25,SE,135,2.5,5.7,77,0.00,,,0.00,WUHU216TE923,2013-01-27 12:53:00,
2013-01-27 07:58:00,27.5,21.3,30.26,NE,45,3.9,5.7,77,0.00,,,0.00,WUHU216TE923,2013-01-27 12:58:00,
2013-01-27 08:03:00,27.5,21.3,30.26,NNE,23,4.7,4.7,77,0.00,,,0.00,WUHU216TE923,2013-01-27 13:03:00,
2013-01-27 08:08:00,27.3,21.1,30.26,ENE,68,4.9,6.8,77,0.00,,,0.00,WUHU216TE923,2013-01-27 13:08:00,
2013-01-27 08:13:00,27.5,21.3,30.26,NE,45,4.9,6.8,77,0.00,,,0.00,WUHU216TE923,2013-01-27 13:13:00,
2013-01-27 08:18:00,27.5,21.3,30.25,NNE,23,4.9,5.7,77,0.00,,,0.00,WUHU216TE923,2013-01-27 13:18:00,
2013-01-27 08:23:00,27.5,21.6,30.25,NNE,23,4.9,5.7,78,0.00,,,0.00,WUHU216TE923,2013-01-27 13:23:00,
2013-01-27 08:28:00,27.5,21.6,30.25,ENE,68,4.7,4.9,78,0.00,,,0.00,WUHU216TE923,2013-01-27 13:28:00,
2013-01-27 08:33:00,27.7,21.8,30.25,NNE,23,4.4,4.7,78,0.00,,,0.00,WUHU216TE923,2013-01-27 13:33:00,
2013-01-27 08:38:00,27.7,21.8,30.25,ENE,68,4.3,5.9,78,0.00,,,0.00,WUHU216TE923,2013-01-27 13:38:00,
2013-01-27 08:43:00,27.9,21.9,30.25,NNE,23,4.3,5.9,78,0.00,,,0.00,WUHU216TE923,2013-01-27 13:43:00,
2013-01-27 08:48:00,28.2,22.2,30.25,NE,45,4.7,5.7,78,0.00,,,0.00,WUHU216TE923,2013-01-27 13:48:00,
2013-01-27 08:53:00,27.9,21.9,30.25,NE,45,5.3,5.7,78,0.00,,,0.00,WUHU216TE923,2013-01-27 13:53:00,
2013-01-27 08:58:00,27.9,21.9,30.25,ENE,68,5.5,5.6,78,0.00,,,0.00,WUHU216TE923,2013-01-27 13:58:00,
2013-01-27 09:03:00,28.2,22.2,30.25,East,90,5.4,5.6,78,0.00,,,0.00,WUHU216TE923,2013-01-27 14:03:00,
2013-01-27 09:08:00,28.2,22.2,30.25,East,90,4.0,5.4,78,0.00,,,0.00,WUHU216TE923,2013-01-27 14:08:00,
2013-01-27 09:13:00,28.2,22.2,30.25,NNE,23,3.3,7.2,78,0.00,,,0.00,WUHU216TE923,2013-01-27 14:13:00,
2013-01-27 09:18:00,28.4,22.7,30.26,NE,45,4.1,7.2,79,0.00,,,0.00,WUHU216TE923,2013-01-27 14:18:00,
2013-01-27 09:23:00,28.9,23.2,30.26,NNE,23,4.2,5.1,79,0.00,,,0.00,WUHU216TE923,2013-01-27 14:23:00,
2013-01-27 09:28:00,29.3,23.6,30.26,NE,45,3.9,5.1,79,0.00,,,0.00,WUHU216TE923,2013-01-27 14:28:00,
2013-01-27 09:33:00,29.3,23.6,30.26,East,90,4.3,5.1,79,0.00,,,0.00,WUHU216TE923,2013-01-27 14:33:00,
2013-01-27 09:38:00,29.7,23.7,30.26,NNE,23,4.6,6.2,78,0.00,,,0.00,WUHU216TE923,2013-01-27 14:38:00,
2013-01-27 09:43:00,29.7,24.0,30.26,NNE,23,4.5,6.2,79,0.00,,,0.00,WUHU216TE923,2013-01-27 14:43:00,
2013-01-27 09:48:00,29.8,23.8,30.26,NE,45,4.2,5.5,78,0.00,,,0.00,WUHU216TE923,2013-01-27 14:48:00,
2013-01-27 09:53:00,30.4,24.4,30.26,ENE,68,3.8,5.7,78,0.00,,,0.00,WUHU216TE923,2013-01-27 14:53:00,
2013-01-27 09:58:00,30.4,24.4,30.27,NE,45,4.9,9.0,78,0.00,,,0.00,WUHU216TE923,2013-01-27 14:58:00,
2013-01-27 10:03:00,30.4,24.4,30.27,ENE,68,5.5,9.0,78,0.00,,,0.00,WUHU216TE923,2013-01-27 15:03:00,
2013-01-27 10:08:00,30.7,24.7,30.27,ENE,68,5.0,6.9,78,0.00,,,0.00,WUHU216TE923,2013-01-27 15:08:00,
2013-01-27 10:13:00,31.1,25.1,30.27,NNE,23,3.9,5.0,78,0.00,,,0.00,WUHU216TE923,2013-01-27 15:13:00,
2013-01-27 10:18:00,31.5,25.1,30.26,ENE,68,2.3,3.9,77,0.00,,,0.00,WUHU216TE923,2013-01-27 15:18:00,
2013-01-27 10:23:00,31.3,25.0,30.26,ENE,68,2.6,4.9,77,0.00,,,0.00,WUHU216TE923,2013-01-27 15:23:00,
2013-01-27 10:28:00,31.8,25.4,30.26,East,90,4.2,4.9,77,0.00,,,0.00,WUHU216TE923,2013-01-27 15:28:00,
2013-01-27 10:33:00,32.5,26.1,30.26,NNE,23,4.2,6.6,77,0.00,,,0.00,WUHU216TE923,2013-01-27 15:33:00,
2013-01-27 10:38:00,32.7,26.3,30.28,NE,45,3.3,6.6,77,0.00,,,0.00,WUHU216TE923,2013-01-27 15:38:00,
2013-01-27 10:43:00,33.4,27.0,30.28,WSW,248,3.0,4.0,77,0.00,,,0.00,WUHU216TE923,2013-01-27 15:43:00,
2013-01-27 10:48:00,33.8,27.1,30.28,ESE,113,2.2,4.2,76,0.00,,,0.00,WUHU216TE923,2013-01-27 15:48:00,
2013-01-27 10:53:00,34.0,27.3,30.28,East,90,2.3,4.2,76,0.00,,,0.00,WUHU216TE923,2013-01-27 15:53:00,
2013-01-27 10:58:00,34.2,27.1,30.30,East,90,2.3,4.1,75,0.00,,,0.00,WUHU216TE923,2013-01-27 15:58:00,
2013-01-27 10:59:00,34.3,27.2,30.30,East,90,2.3,4.1,75,0.00,,,0.00,WUHU216TE923,2013-01-27 15:59:00,
2013-01-27 11:03:00,34.3,27.2,30.30,East,90,2.3,4.1,75,0.00,,,0.00,WUHU216TE923,2013-01-27 16:03:00,
2013-01-27 11:08:00,34.3,27.2,30.30,East,90,2.3,4.1,75,0.00,,,0.00,WUHU216TE923,2013-01-27 16:08:00,
2013-01-27 19:50:00,42.6,36.3,30.21,SE,135,2.1,4.3,78,0.00,,,0.00,WUHU216TE923,2013-01-28 00:50:00,
2013-01-27 19:55:00,42.6,36.3,30.21,SE,135,2.1,4.3,78,0.00,,,0.00,WUHU216TE923,2013-01-28 00:55:00,
2013-01-27 20:00:00,42.6,36.3,30.20,ENE,68,1.6,2.7,78,0.00,,,0.00,WUHU216TE923,2013-01-28 01:00:00,
2013-01-27 20:05:00,42.6,36.3,30.20,ENE,68,1.6,2.7,78,0.00,,,0.00,WUHU216TE923,2013-01-28 01:05:00,
2013-01-27 20:10:00,42.4,36.7,30.20,East,90,1.7,1.8,80,0.00,,,0.00,WUHU216TE923,2013-01-28 01:10:00,
2013-01-27 20:15:00,42.4,36.7,30.20,East,90,1.7,1.8,80,0.00,,,0.00,WUHU216TE923,2013-01-28 01:15:00,
2013-01-27 20:20:00,42.6,36.9,30.20,West,270,2.0,3.0,80,0.03,,,0.03,WUHU216TE923,2013-01-28 01:20:00,
2013-01-27 20:25:00,42.6,36.9,30.20,West,270,2.0,3.0,80,0.03,,,0.03,WUHU216TE923,2013-01-28 01:25:00,
2013-01-27 20:30:00,42.6,37.2,30.20,SE,135,1.9,2.9,81,0.03,,,0.03,WUHU216TE923,2013-01-28 01:30:00,
2013-01-27 20:35:00,42.6,37.2,30.20,SE,135,1.9,2.9,81,0.03,,,0.03,WUHU216TE923,2013-01-28 01:35:00,
2013-01-27 20:40:00,42.6,37.8,30.18,South,180,1.5,3.1,83,0.03,,,0.03,WUHU216TE923,2013-01-28 01:40:00,
2013-01-27 20:45:00,42.6,37.8,30.18,South,180,1.5,3.1,83,0.03,,,0.03,WUHU216TE923,2013-01-28 01:45:00,
2013-01-27 20:50:00,42.6,38.1,30.18,SW,225,3.0,3.6,84,0.03,,,0.03,WUHU216TE923,2013-01-28 01:50:00,
2013-01-27 20:55:00,42.6,38.1,30.18,SW,225,3.0,3.6,84,0.03,,,0.03,WUHU216TE923,2013-01-28 01:55:00,
2013-01-27 21:00:00,42.6,38.1,30.18,SW,225,2.2,2.7,84,0.06,,,0.06,WUHU216TE923,2013-01-28 02:00:00,
2013-01-27 21:05:00,42.6,38.1,30.18,SW,225,2.2,2.7,84,0.06,,,0.06,WUHU216TE923,2013-01-28 02:05:00,
2013-01-27 21:10:00,42.6,38.4,30.18,WSW,248,2.0,2.1,85,0.03,,,0.06,WUHU216TE923,2013-01-28 02:10:00,
2013-01-27 21:15:00,42.6,38.4,30.18,WSW,248,2.0,2.1,85,0.03,,,0.06,WUHU216TE923,2013-01-28 02:15:00,
2013-01-27 21:20:00,42.6,38.4,30.17,SSE,158,1.6,3.2,85,0.03,,,0.06,WUHU216TE923,2013-01-28 02:20:00,
2013-01-27 21:25:00,42.6,38.4,30.17,SSE,158,1.6,3.2,85,0.03,,,0.06,WUHU216TE923,2013-01-28 02:25:00,
2013-01-27 21:30:00,42.4,38.5,30.17,SSW,203,2.5,2.9,86,0.03,,,0.06,WUHU216TE923,2013-01-28 02:30:00,
2013-01-27 21:35:00,42.4,38.5,30.17,SSW,203,2.5,2.9,86,0.03,,,0.06,WUHU216TE923,2013-01-28 02:35:00,
2013-01-27 21:40:00,42.6,39.0,30.17,WSW,248,1.6,2.2,87,0.03,,,0.06,WUHU216TE923,2013-01-28 02:40:00,
2013-01-27 21:45:00,42.6,39.0,30.17,WSW,248,1.6,2.2,87,0.03,,,0.06,WUHU216TE923,2013-01-28 02:45:00,
2013-01-27 21:50:00,42.6,39.3,30.17,SW,225,1.6,2.7,88,0.03,,,0.09,WUHU216TE923,2013-01-28 02:50:00,
2013-01-27 21:55:00,42.6,39.3,30.17,SW,225,1.6,2.7,88,0.03,,,0.09,WUHU216TE923,2013-01-28 02:55:00,
2013-01-27 22:00:00,42.4,39.1,30.16,SW,225,2.1,3.0,88,0.03,,,0.09,WUHU216TE923,2013-01-28 03:00:00,
2013-01-27 22:05:00,42.4,39.1,30.16,SW,225,2.1,3.0,88,0.03,,,0.09,WUHU216TE923,2013-01-28 03:05:00,
2013-01-27 22:10:00,42.6,39.3,30.16,SW,225,1.8,2.1,88,0.03,,,0.09,WUHU216TE923,2013-01-28 03:10:00,
2013-01-27 22:15:00,42.6,39.3,30.16,SW,225,1.8,2.1,88,0.03,,,0.09,WUHU216TE923,2013-01-28 03:15:00,
2013-01-27 22:20:00,42.6,39.5,30.16,South,180,1.6,3.4,89,0.03,,,0.09,WUHU216TE923,2013-01-28 03:20:00,
2013-01-27 22:25:00,42.6,39.5,30.16,South,180,1.6,3.4,89,0.03,,,0.09,WUHU216TE923,2013-01-28 03:25:00,
2013-01-27 22:30:00,42.8,39.7,30.16,SW,225,3.2,4.4,89,0.03,,,0.09,WUHU216TE923,2013-01-28 03:30:00,
2013-01-27 22:35:00,42.8,39.7,30.16,SW,225,3.2,4.4,89,0.03,,,0.09,WUHU216TE923,2013-01-28 03:35:00,
2013-01-27 22:40:00,43.0,39.9,30.16,WSW,248,3.9,6.3,89,0.00,,,0.09,WUHU216TE923,2013-01-28 03:40:00,
2013-01-27 22:45:00,43.0,39.9,30.16,WSW,248,3.9,6.3,89,0.00,,,0.09,WUHU216TE923,2013-01-28 03:45:00,
2013-01-27 22:50:00,43.0,39.9,30.16,SW,225,3.8,5.2,89,0.00,,,0.09,WUHU216TE923,2013-01-28 03:50:00,
2013-01-27 22:55:00,43.0,39.9,30.16,SW,225,3.8,5.2,89,0.00,,,0.09,WUHU216TE923,2013-01-28 03:55:00,
2013-01-27 23:00:00,43.0,39.9,30.15,South,180,3.5,3.6,89,0.00,,,0.09,WUHU216TE923,2013-01-28 04:00:00,
2013-01-27 23:05:00,43.0,39.9,30.15,South,180,3.5,3.6,89,0.00,,,0.09,WUHU216TE923,2013-01-28 04:05:00,
2013-01-27 23:10:00,43.3,40.2,30.15,SW,225,3.7,4.0,89,0.00,,,0.09,WUHU216TE923,2013-01-28 04:10:00,
2013-01-27 23:15:00,43.3,40.2,30.15,SW,225,3.7,4.0,89,0.00,,,0.09,WUHU216TE923,2013-01-28 04:15:00,
2013-01-27 23:20:00,43.2,39.9,30.16,South,180,3.6,4.2,88,0.00,,,0.09,WUHU216TE923,2013-01-28 04:20:00,
2013-01-27 23:25:00,43.2,39.9,30.16,South,180,3.6,4.2,88,0.00,,,0.09,WUHU216TE923,2013-01-28 04:25:00,
2013-01-27 23:30:00,43.2,39.9,30.16,WSW,248,3.5,3.8,88,0.00,,,0.09,WUHU216TE923,2013-01-28 04:30:00,
2013-01-27 23:35:00,43.2,39.9,30.16,WSW,248,3.5,3.8,88,0.00,,,0.09,WUHU216TE923,2013-01-28 04:35:00,
2013-01-27 23:40:00,43.3,40.0,30.15,WSW,248,3.3,3.6,88,0.00,,,0.09,WUHU216TE923,2013-01-28 04:40:00,
2013-01-27 23:45:00,43.3,40.0,30.15,WSW,248,3.3,3.6,88,0.00,,,0.09,WUHU216TE923,2013-01-28 04:45:00,
2013-01-27 23:50:00,43.3,40.0,30.15,WSW,248,3.6,4.1,88,0.00,,,0.09,WUHU216TE923,2013-01-28 04:50:00,
2013-01-27 23:55:00,43.3,40.0,30.15,WSW,248,3.6,4.1,88,0.00,,,0.09,WUHU216TE923,2013-01-28 04:55:00,